TimeCDT,TemperatureF,Dew PointF,Humidity,Sea Level PressureIn,VisibilityMPH,Wind Direction,Wind SpeedMPH,Gust SpeedMPH,PrecipitationIn,Events,Conditions,WindDirDegrees,DateUTC
12:53 AM,62.1,50.0,65,30.12,10.0,South,3.5,-,N/A,,Clear,190,2011-10-06 05:53:00
1:53 AM,61.0,48.9,64,30.13,10.0,South,5.8,-,N/A,,Clear,170,2011-10-06 06:53:00
2:53 AM,60.1,48.0,64,30.13,10.0,South,3.5,-,N/A,,Clear,170,2011-10-06 07:53:00
3:53 AM,59.0,48.0,67,30.14,10.0,South,4.6,-,N/A,,Clear,170,2011-10-06 08:53:00
4:53 AM,57.9,48.0,70,30.14,10.0,South,4.6,-,N/A,,Clear,180,2011-10-06 09:53:00
5:53 AM,48.9,46.9,93,30.15,10.0,Calm,Calm,-,N/A,,Clear,0,2011-10-06 10:53:00
6:53 AM,46.0,44.1,93,30.17,10.0,Calm,Calm,-,N/A,,Clear,0,2011-10-06 11:53:00
7:53 AM,48.9,46.9,93,30.18,10.0,Calm,Calm,-,N/A,,Clear,0,2011-10-06 12:53:00
8:53 AM,60.1,48.9,67,30.17,10.0,South,4.6,-,N/A,,Clear,170,2011-10-06 13:53:00
9:53 AM,64.9,48.9,56,30.17,10.0,SSE,6.9,-,N/A,,Clear,150,2011-10-06 14:53:00
10:53 AM,69.1,48.0,47,30.17,10.0,South,5.8,-,N/A,,Clear,170,2011-10-06 15:53:00
11:53 AM,73.9,48.0,40,30.14,10.0,South,6.9,-,N/A,,Clear,180,2011-10-06 16:53:00
12:53 PM,75.9,46.0,35,30.13,10.0,SSE,13.8,20.7,N/A,,Clear,160,2011-10-06 17:53:00
1:53 PM,78.1,46.0,32,30.12,10.0,South,16.1,21.9,N/A,,Clear,180,2011-10-06 18:53:00
2:53 PM,79.0,46.0,31,30.11,10.0,South,9.2,18.4,N/A,,Clear,170,2011-10-06 19:53:00
3:53 PM,79.0,46.9,32,30.10,10.0,SSE,11.5,18.4,N/A,,Clear,150,2011-10-06 20:53:00
4:53 PM,77.0,46.9,34,30.09,10.0,SSE,10.4,-,N/A,,Clear,160,2011-10-06 21:53:00
5:53 PM,73.9,46.0,37,30.09,10.0,South,9.2,-,N/A,,Clear,170,2011-10-06 22:53:00
6:53 PM,66.0,46.9,50,30.11,10.0,Calm,Calm,-,N/A,,Clear,0,2011-10-06 23:53:00
7:53 PM,66.9,48.9,52,30.10,10.0,SSE,5.8,-,N/A,,Clear,160,2011-10-07 00:53:00
8:53 PM,66.0,48.9,54,30.10,10.0,SSE,5.8,-,N/A,,Clear,150,2011-10-07 01:53:00
9:53 PM,66.0,48.9,54,30.09,10.0,SSE,8.1,-,N/A,,Clear,160,2011-10-07 02:53:00
10:53 PM,64.9,50.0,58,30.10,10.0,SSE,8.1,-,N/A,,Clear,150,2011-10-07 03:53:00
11:53 PM,64.9,50.0,58,30.09,10.0,SSE,9.2,-,N/A,,Clear,160,2011-10-07 04:53:00